sat.trackr.live / text

‹ back to catalog

KUIPER-00189

NORAD 68574 · 2026-072B

PAYLOAD ACTIVE UNKNOWN

§ Identity

Operator
Country
US
Launch date
2026-04-04
Launch site
AFETR
Launch vehicle
Mass (kg)
RCS (m²)

External: N2YO · Heavens-Above · Gunter

§ Orbital elements

Epoch: 2026-05-24T18:39:42.089472Z

Period
97.54 min
Inclination
51.8985°
Eccentricity
0.0000818
Mean motion
14.76318651 rev/d
Perigee alt
640.4 km
Apogee alt
641.5 km
Semi-major
7,019.1 km
B*
2.9677e-4
RAAN
301.1914°
Arg perigee
225.6024°
Mean anomaly
134.4870°
Rev number
762

§ Raw data

KUIPER-001891 68574U 26072B   26144.77757048  .00001864  00000+0  29677-3 0  99912 68574  51.8985 301.1914 0000818 225.6024 134.4870 14.76318651  7629

JSON: /api/v1/satellites/68574 · /tle

For live sub-satellite position, see the globe view (requires WebGL).

§ Visibility from observer

Set your observer location to see the next 7 days of passes ≥ 10°. The values pass through the URL so the page stays shareable.

No JS? Fill the form by hand. The geolocation button needs JavaScript.